Location: Bastrop State Park
(30.1090°N, 97.2819°W)
Time: 18:24:18
(UTC-05:00)

ISS - Visible Passes

Search period start: 24 May 2016 00:00
Search period end: 03 June 2016 00:00
Orbit: 402 x 404 km, 51.6° (Epoch: 24 May)

Date Brightness Start Highest point End Pass type
(mag) Time Alt. Az. Time Alt. Az. Time Alt. Az.
25 May -1.5 21:18:18 10° S 21:19:19 15° SSE 21:19:19 15° SSE visible
26 May -0.2 05:26:21 10° N 05:28:43 18° NE 05:31:05 10° E visible
26 May -2.8 22:00:51 10° SW 22:04:03 58° NW 22:07:16 10° NE visible
27 May 0.4 04:35:11 10° NNE 04:35:45 10° NNE 04:36:19 10° NE visible
27 May -3.3 21:08:08 10° SSW 21:11:20 55° SE 21:14:31 10° NE visible
27 May 0.2 22:46:41 10° WNW 22:48:00 12° NW 22:49:19 10° N visible
28 May -2.2 05:16:35 10° NNW 05:19:45 46° NE 05:22:53 10° ESE visible
28 May -0.5 21:52:27 10° W 21:55:02 21° NW 21:57:38 10° NNE visible
29 May -0.7 04:24:15 10° NNW 04:26:54 22° NE 04:29:32 10° E visible
29 May -2.1 06:00:40 10° WNW 06:03:15 22° SW 06:05:48 10° S visible
29 May -2.0 20:59:03 10° WSW 21:02:10 44° NW 21:05:19 10° NNE visible
30 May 0.1 03:32:30 10° N 03:33:56 12° NE 03:35:21 10° ENE visible
30 May -3.3 05:07:25 10° NW 05:10:35 52° SW 05:13:44 10° SSE visible
30 May 0.6 21:46:03 10° NW 21:46:10 10° NNW 21:46:18 10° NNW visible
31 May -0.2 20:50:50 10° W 20:53:09 18° NW 20:55:29 10° N visible
